Terminal Aerodrome Forecast
Issued by NWS St Louis, MO

Home | Current Version | Previous Version | Text Only | Print | Product List | Glossary On
Versions: 1 2 3 4 5 6 7 8 9 10 11 12 13 14 15 16 17 18 19 20 21 22 23 24 25 26
000
FTUS43 KLSX 242000 AAA
TAFSTL
TAF AMD
KSTL 242052Z 2421/2524 23006KT P6SM BKN250
     FM250000 17005KT P6SM BKN250
     FM250900 28005KT P6SM SCT250
      TEMPO 2511/2514 5SM BR
     FM251500 31007KT P6SM SKC=

USA.gov is the U.S. government's official web portal to all federal, state and local government web resources and services.